Regional Weather Roundup
Issued by NWS

Home | Current Version | Previous Version | Graphics & Text | Print | Product List | Glossary On
Versions: 1 2 3 4 5 6 7 8 9 10 11 12 13 14 15 16 17 18 19 20 21 22 23 24 25 26 27 28 29 30 31 32 33 34 35 36 37 38 39 40 41 42 43 44 45 46 47 48 49 50
000
ASUS43 KLMK 230702
RWRKY
KENTUCKY REGIONAL WEATHER ROUNDUP
NATIONAL WEATHER SERVICE LOUISVILLE KY
300 AM EDT SAT SEP 23 2017

NOTE "FAIR" INDICATES FEW OR NO CLOUDS BELOW 12,000 FEET
WITH NO SIGNIFICANT WEATHER AND/OR OBSTRUCTIONS TO VISIBILITY.

KYZ001>023-026-027-061>063-070>075-230800-
WESTERN AND SOUTH CENTRAL KENTUCKY

CITY           SKY/WX    TMP DP  RH WIND       PRES   REMARKS
PADUCAH        CLEAR     69  66  90 CALM      30.01R
HENDERSON      CLEAR     66  65  96 MISG      30.04R FOG
OWENSBORO      CLEAR     70  68  93 CALM      30.04R
HOPKINSVILLE   NOT AVBL
BOWLING GREEN  CLEAR     69  68  96 CALM      30.03F
GLASGOW        CLEAR     67  67 100 CALM      30.04S
$$

KYZ024-025-028>034-038-045-046-053-230800-
NORTH CENTRAL KENTUCKY

CITY           SKY/WX    TMP DP  RH WIND       PRES   REMARKS
LOUISVILLE/SDF CLEAR     73  66  78 SE3       30.05S
LOUISVILLE/LOU CLEAR     68  68 100 CALM      30.06S
FORT KNOX      NOT AVBL
$$

KYZ035>037-039>044-047>052-055>060-089>105-230800-
NORTHEAST KENTUCKY

CITY           SKY/WX    TMP DP  RH WIND       PRES   REMARKS
LEXINGTON      CLEAR     65  62  90 CALM      30.08R
COVINGTON      CLEAR     66  66 100 CALM      30.07F
FRANKFORT      CLEAR     65  61  87 N3        30.06S
$$

KYZ054-064>069-076>088-106>120-230800-
SOUTHEAST KENTUCKY

CITY           SKY/WX    TMP DP  RH WIND       PRES   REMARKS
JACKSON        CLEAR     67  64  90 CALM      30.09S
LONDON         CLEAR     63  62  97 CALM      30.07F
SOMERSET       NOT AVBL
MIDDLESBORO    PTCLDY    64  64 100 CALM      30.09S
MONTICELLO     SUNNY     61  60  97 VRB6      30.07F
$$





USA.gov is the U.S. government's official web portal to all federal, state and local government web resources and services.